Weather History for Mayport NS, FL

Change the Weather History Date:

Tuesday, December 11, 2012

  Actual Average Record
Temperature  
Mean Temperature 68 °F -  
Max Temperature 75 °F 63 °F 77 °F (2007)
Min Temperature 62 °F 51 °F 41 °F (2014)
Cooling Degree Days 4    
Growing Degree Days 18 (Base 50)    
Moisture  
Dew Point 66 °F    
Average Humidity 95    
Maximum Humidity 100    
Minimum Humidity 73    
Precipitation  
Precipitation 0.01 in - - ()
Sea Level Pressure  
Sea Level Pressure 29.94 in    
Wind  
Wind Speed 5 mph (SSW)    
Max Wind Speed 12 mph    
Max Gust Speed 31 mph    
Visibility 6 miles    
Events Fog    
Averages and records for this station are not official NWS values.
T = Trace of Precipitation, MM = Missing Value Source: NWS Daily Summary

Daily Weather History Graph

Daily Weather History Graph

Search for Another Location

Airport:

Trip Planner

Search our weather history database for the weather conditions in past years. The results will help you decide how hot, cold, wet, or windy it might be!

Date:

Astronomy

Dec. 11, 2012 Rise Set
Actual Time 7:12 AM EST 5:25 PM EST
Civil Twilight 6:46 AM EST 5:52 PM EST
Nautical Twilight 6:16 AM EST 6:22 PM EST
Astronomical Twilight 5:46 AM EST 6:51 PM EST
Moon 5:09 AM EST (12/11) 4:00 PM EST (12/11)
Length of Visible Light 11h 05m
Length of Day
10h 13m
Waning Crescent, 4% of the Moon is Illuminated
Dec 11
Waning Crescent
Dec 13
New
Dec 20
First Quarter
Dec 28
Full
Jan 4
Last Quarter

Hourly Weather History & Observations

Time (EST) Temp. Dew Point Humidity Pressure Visibility Wind Dir Wind Speed Gust Speed Precip Events Conditions
12:52 AM 68.0 °F 66.9 °F 96% 29.85 in 9.0 mi WSW 8.1 mph - 0.01 in   Scattered Clouds
1:23 AM 68.0 °F 66.2 °F 94% 29.85 in 9.0 mi WSW 5.8 mph - N/A   Mostly Cloudy
1:52 AM 68.0 °F 66.9 °F 96% 29.85 in 9.0 mi WSW 4.6 mph - N/A   Overcast
2:13 AM 68.0 °F 66.2 °F 94% 29.85 in 10.0 mi WSW 4.6 mph - N/A   Overcast
2:52 AM 68.0 °F 66.9 °F 96% 29.86 in 8.0 mi Calm Calm - N/A   Overcast
3:00 AM 68.0 °F 66.2 °F 94% 29.86 in 8.0 mi Calm Calm - N/A   Overcast
3:52 AM 66.9 °F 66.0 °F 97% 29.88 in 8.0 mi South 5.8 mph - N/A   Mostly Cloudy
4:52 AM 66.9 °F 66.9 °F 100% 29.89 in 7.0 mi SSW 4.6 mph - N/A   Mostly Cloudy
5:03 AM 66.2 °F 66.2 °F 100% 29.89 in 4.0 mi SW 3.5 mph - N/A   Partly Cloudy
5:12 AM 64.4 °F 64.4 °F 100% 29.90 in 1.5 mi SSW 5.8 mph - N/A   Partly Cloudy
5:15 AM 64.4 °F 64.4 °F 100% 29.90 in 0.8 mi South 6.9 mph - N/A   Mist
5:26 AM 64.4 °F 64.4 °F 100% 29.90 in 1.2 mi SSW 3.5 mph - N/A   Partly Cloudy
5:41 AM 64.4 °F 64.4 °F 100% 29.90 in 0.8 mi SSW 3.5 mph - N/A   Mist
5:47 AM 64.4 °F 64.4 °F 100% 29.90 in 0.2 mi South 3.5 mph - N/A Fog Fog
5:52 AM 64.0 °F 64.0 °F 100% 29.90 in 0.2 mi SSW 3.5 mph - N/A Fog Fog
6:04 AM 64.4 °F 64.4 °F 100% 29.91 in 4.0 mi SSW 4.6 mph - N/A Fog Scattered Clouds
6:39 AM 62.6 °F 62.6 °F 100% 29.91 in 0.5 mi South 4.6 mph - N/A Fog Fog
6:52 AM 64.9 °F 64.9 °F 100% 29.91 in 0.1 mi South 4.6 mph - N/A Fog Fog
7:21 AM 66.2 °F 66.2 °F 100% 29.93 in 0.5 mi SSW 4.6 mph - N/A Fog Fog
7:44 AM 66.2 °F 66.2 °F 100% 29.94 in 1.0 mi SSW 5.8 mph - N/A   Mostly Cloudy
7:52 AM 66.0 °F 66.0 °F 100% 29.94 in 1.0 mi South 5.8 mph - N/A   Mostly Cloudy
8:25 AM 66.2 °F 66.2 °F 100% 29.96 in 4.0 mi South 4.6 mph - N/A   Mostly Cloudy
8:52 AM 66.9 °F 66.9 °F 100% 29.96 in 4.0 mi South 6.9 mph - N/A   Mostly Cloudy
9:52 AM 70.0 °F 69.1 °F 97% 29.99 in 10.0 mi SW 5.8 mph - N/A   Mostly Cloudy
10:52 AM 72.0 °F 66.9 °F 84% 29.99 in 10.0 mi Calm Calm - N/A   Mostly Cloudy
11:52 AM 73.0 °F 66.9 °F 81% 29.99 in 10.0 mi WSW 3.5 mph - N/A   Mostly Cloudy
12:34 PM 75.2 °F 66.2 °F 73% 29.97 in 10.0 mi SSW 6.9 mph - N/A   Mostly Cloudy
12:52 PM 73.9 °F 68.0 °F 82% 29.96 in 10.0 mi SE 11.5 mph - N/A   Mostly Cloudy
1:52 PM 73.9 °F 66.9 °F 79% 29.95 in 10.0 mi SSE 6.9 mph - N/A   Mostly Cloudy
2:52 PM 72.0 °F 66.9 °F 84% 29.94 in 10.0 mi SE 10.4 mph - N/A   Mostly Cloudy
3:52 PM 73.0 °F 66.9 °F 81% 29.96 in 10.0 mi SE 9.2 mph - N/A   Scattered Clouds
4:52 PM 69.1 °F 66.0 °F 90% 29.96 in 10.0 mi SE 9.2 mph - N/A   Mostly Cloudy
5:52 PM 66.9 °F 66.0 °F 97% 29.97 in 10.0 mi SSE 6.9 mph 31.1 mph N/A   Mostly Cloudy
6:52 PM 66.9 °F 66.0 °F 97% 29.98 in 10.0 mi SSE 9.2 mph - N/A   Mostly Cloudy
7:52 PM 66.0 °F 66.0 °F 100% 30.01 in 8.0 mi WNW 5.8 mph - N/A   Mostly Cloudy
8:52 PM 66.9 °F 66.0 °F 97% 30.02 in 7.0 mi North 3.5 mph - N/A   Mostly Cloudy
9:52 PM 66.0 °F 64.9 °F 96% 30.02 in 6.0 mi North 4.6 mph - N/A   Mostly Cloudy
10:52 PM 64.9 °F 63.0 °F 93% 30.06 in 8.0 mi Calm Calm - N/A   Overcast
11:52 PM 64.0 °F 62.1 °F 93% 30.06 in 8.0 mi Calm Calm - N/A   Mostly Cloudy